,,Stat5,,Stat1,,Stat2,,Stat3,,Stat4,,Wind1,,Wind1,
time,status,PA1M_AVG,status,PR1M_SUM,status,RH1M_AVG,status,SR1M_AVG,status,TA1M_AVG,status,W1dAve1m,status,W1sAve1m,
2002-12-06, 00:00:01,VALID,918.777,VALID,0,VALID,98.0255,VALID,-0.0169808,VALID,20.575,VALID,9,VALID,0.715545,
2002-12-06, 00:01:00,VALID,918.762,VALID,0,VALID,98.0522,VALID,-0.0169808,VALID,20.5944,VALID,14,VALID,0.66862,
2002-12-06, 00:02:00,VALID,918.757,VALID,0,VALID,98.0318,VALID,-0.0169808,VALID,20.5745,VALID,357,VALID,0.515179,
2002-12-06, 00:03:01,VALID,918.719,VALID,0,VALID,98.0026,VALID,-0.0339617,VALID,20.5618,VALID,345,VALID,0.48163,
2002-12-06, 00:04:01,VALID,918.71,VALID,0,VALID,97.9848,VALID,-0.0849042,VALID,20.5591,VALID,4,VALID,0.704644,
2002-12-06, 00:05:01,VALID,918.685,VALID,0,VALID,97.9708,VALID,-0.0679233,VALID,20.5623,VALID,4,VALID,0.832617,
2002-12-06, 00:06:01,VALID,918.682,VALID,0,VALID,97.9453,VALID,-0.0849042,VALID,20.5494,VALID,349,VALID,0.66867,
2002-12-06, 00:07:00,VALID,918.68,VALID,0,VALID,97.9441,VALID,-0.0169808,VALID,20.5467,VALID,348,VALID,0.494591,
2002-12-06, 00:08:01,VALID,918.673,VALID,0,VALID,97.9975,VALID,-0.0509425,VALID,20.5367,VALID,339,VALID,0.802734,
2002-12-06, 00:09:00,VALID,918.663,VALID,0,VALID,97.9784,VALID,-0.0679233,VALID,20.5265,VALID,357,VALID,0.458404,
2002-12-06, 00:10:00,VALID,918.643,VALID,0,VALID,97.9479,VALID,0,VALID,20.5203,VALID,354,VALID,0.327508,
2002-12-06, 00:11:00,VALID,918.618,VALID,0,VALID,98.0102,VALID,-0.0339617,VALID,20.4969,VALID,357,VALID,0.79523,
2002-12-06, 00:12:00,VALID,918.606,VALID,0,VALID,97.9848,VALID,-0.0339617,VALID,20.5106,VALID,347,VALID,0.360026,
2002-12-06, 00:13:00,VALID,918.592,VALID,0,VALID,98.0712,VALID,-0.0339617,VALID,20.5268,VALID,355,VALID,0.347128,
2002-12-06, 00:14:01,VALID,918.6,VALID,0,VALID,98.1132,VALID,-0.0339617,VALID,20.5295,VALID,358,VALID,0.115954,
2002-12-06, 00:15:01,VALID,918.605,VALID,0,VALID,98.0801,VALID,-0.0509425,VALID,20.5365,VALID,340,VALID,0.425887,
2002-12-06, 00:16:01,VALID,918.613,VALID,0,VALID,98.0089,VALID,-0.101885,VALID,20.5106,VALID,1,VALID,0.357973,
2002-12-06, 00:17:01,VALID,918.613,VALID,0,VALID,98.0458,VALID,-0.0169808,VALID,20.5104,VALID,1,VALID,0.644426,
2002-12-06, 00:18:01,VALID,918.618,VALID,0,VALID,98.042,VALID,-0.0679233,VALID,20.5171,VALID,356,VALID,0.764147,
2002-12-06, 00:19:01,VALID,918.617,VALID,0,VALID,98.0165,VALID,-0.0339617,VALID,20.5176,VALID,355,VALID,0.69308,
2002-12-06, 00:20:01,VALID,918.603,VALID,0,VALID,98.0204,VALID,-0.0169808,VALID,20.5109,VALID,19,VALID,0.427787,
2002-12-06, 00:21:01,VALID,918.595,VALID,0,VALID,98.0216,VALID,-0.0339617,VALID,20.5074,VALID,357,VALID,0.523438,
2002-12-06, 00:22:01,VALID,918.581,VALID,0,VALID,98.0013,VALID,-0.0509425,VALID,20.5079,VALID,356,VALID,0.721205,
2002-12-06, 00:23:01,VALID,918.568,VALID,0,VALID,98.1145,VALID,-0.0679233,VALID,20.5305,VALID,21,VALID,0.756757,
2002-12-06, 00:24:01,VALID,918.589,VALID,0,VALID,98.159,VALID,-0.0509425,VALID,20.5333,VALID,21,VALID,0.750651,
2002-12-06, 00:25:01,VALID,918.59,VALID,0,VALID,98.1882,VALID,-0.0679233,VALID,20.5424,VALID,16,VALID,0.296484,
2002-12-06, 00:26:01,VALID,918.599,VALID,0,VALID,98.2073,VALID,-0.0509425,VALID,20.5693,VALID,20,VALID,0.820713,
2002-12-06, 00:27:01,VALID,918.596,VALID,0,VALID,98.2022,VALID,-0.0339617,VALID,20.5755,VALID,10,VALID,0.586739,
2002-12-06, 00:28:01,VALID,918.599,VALID,0,VALID,98.2264,VALID,-0.0849042,VALID,20.5882,VALID,17,VALID,0.73546,
2002-12-06, 00:29:01,VALID,918.604,VALID,0,VALID,98.1132,VALID,-0.0849042,VALID,20.579,VALID,16,VALID,1.20608,
2002-12-06, 00:30:01,VALID,918.601,VALID,0,VALID,98.0954,VALID,-0.0339617,VALID,20.5822,VALID,339,VALID,0.602796,
2002-12-06, 00:31:01,VALID,918.606,VALID,0,VALID,98.0433,VALID,-0.0509425,VALID,20.5556,VALID,311,VALID,0.228002,
2002-12-06, 00:32:01,VALID,918.602,VALID,0,VALID,97.9822,VALID,-0.0849042,VALID,20.536,VALID,5,VALID,0.571398,
2002-12-06, 00:33:01,VALID,918.601,VALID,0,VALID,97.9975,VALID,-0.0679233,VALID,20.5432,VALID,10,VALID,0.272593,
2002-12-06, 00:34:01,VALID,918.587,VALID,0,VALID,98.0585,VALID,-0.0679233,VALID,20.5491,VALID,359,VALID,0.0997122,
2002-12-06, 00:35:01,VALID,918.583,VALID,0,VALID,97.9631,VALID,0,VALID,20.5395,VALID,312,VALID,0.252323,
2002-12-06, 00:36:00,VALID,918.553,VALID,0,VALID,97.9364,VALID,-0.0849042,VALID,20.5265,VALID,312,VALID,0.109976,
2002-12-06, 00:37:00,VALID,918.517,VALID,0,VALID,98.0318,VALID,-0.0679233,VALID,20.533,VALID,320,VALID,0.202914,
2002-12-06, 00:38:00,VALID,918.499,VALID,0,VALID,98.1895,VALID,-0.0679233,VALID,20.5691,VALID,10,VALID,0.594383,
2002-12-06, 00:39:00,VALID,918.465,VALID,0,VALID,98.2772,VALID,-0.0169808,VALID,20.5949,VALID,21,VALID,0.753348,
2002-12-06, 00:40:00,VALID,918.436,VALID,0,VALID,98.3357,VALID,-0.0679233,VALID,20.6178,VALID,22,VALID,0.591005,
2002-12-06, 00:41:00,VALID,918.421,VALID,0,VALID,98.3688,VALID,-0.0339617,VALID,20.6307,VALID,11,VALID,0.41847,
2002-12-06, 00:42:00,VALID,918.416,VALID,0,VALID,98.3675,VALID,-0.0509425,VALID,20.6401,VALID,9,VALID,0.106696,
2002-12-06, 00:43:00,VALID,918.42,VALID,0,VALID,98.3764,VALID,-0.0509425,VALID,20.6399,VALID,20,VALID,0.388302,
2002-12-06, 00:44:00,VALID,918.409,VALID,0,VALID,98.3167,VALID,-0.0849042,VALID,20.627,VALID,360,VALID,0.109786,
2002-12-06, 00:45:00,VALID,918.435,VALID,0,VALID,98.3408,VALID,-0.0169808,VALID,20.6302,VALID,356,VALID,0,
2002-12-06, 00:46:00,VALID,918.447,VALID,0,VALID,98.2989,VALID,-0.0849042,VALID,20.624,VALID,356,VALID,0.0010016,
2002-12-06, 00:47:00,VALID,918.448,VALID,0,VALID,98.2696,VALID,-0.0339617,VALID,20.6111,VALID,359,VALID,0.111979,
2002-12-06, 00:48:00,VALID,918.473,VALID,0,VALID,98.2861,VALID,-0.0679233,VALID,20.6043,VALID,31,VALID,0.418403,
2002-12-06, 00:49:00,VALID,918.482,VALID,0,VALID,98.2721,VALID,-0.0509425,VALID,20.6038,VALID,6,VALID,0.209248,
2002-12-06, 00:50:00,VALID,918.493,VALID,0,VALID,98.2442,VALID,-0.0339617,VALID,20.6081,VALID,6,VALID,0.204153,
2002-12-06, 00:51:00,VALID,918.518,VALID,0,VALID,98.248,VALID,-0.0339617,VALID,20.5884,VALID,6,VALID,0.101151,
2002-12-06, 00:52:00,VALID,918.532,VALID,0,VALID,98.2315,VALID,-0.0339617,VALID,20.5747,VALID,15,VALID,0.50803,
2002-12-06, 00:53:00,VALID,918.542,VALID,0,VALID,98.1488,VALID,0,VALID,20.5588,VALID,21,VALID,0.577914,
2002-12-06, 00:54:00,VALID,918.538,VALID,0,VALID,98.1056,VALID,-0.0169808,VALID,20.5462,VALID,30,VALID,0.826686,
2002-12-06, 00:55:00,VALID,918.537,VALID,0,VALID,98.0687,VALID,-0.0339617,VALID,20.5559,VALID,10,VALID,0.989231,
2002-12-06, 00:56:00,VALID,918.517,VALID,0,VALID,98.0839,VALID,0,VALID,20.5322,VALID,6,VALID,0.564904,
2002-12-06, 00:57:00,VALID,918.504,VALID,0,VALID,98.1437,VALID,-0.0339617,VALID,20.5521,VALID,26,VALID,0.538007,
2002-12-06, 00:58:00,VALID,918.493,VALID,0,VALID,98.1463,VALID,0,VALID,20.575,VALID,27,VALID,0.168708,
2002-12-06, 00:59:00,VALID,918.484,VALID,0,VALID,98.1653,VALID,0,VALID,20.578,VALID,27,VALID,0.0790179,
2002-12-06, 01:00:00,VALID,918.47,VALID,0,VALID,98.1831,VALID,0,VALID,20.568,VALID,27,VALID,0,
2002-12-06, 01:01:00,VALID,918.451,VALID,0,VALID,98.2251,VALID,-0.0169808,VALID,20.5712,VALID,27,VALID,0.0849359,
2002-12-06, 01:02:00,VALID,918.439,VALID,0,VALID,98.2861,VALID,0,VALID,20.6043,VALID,27,VALID,0.288393,
2002-12-06, 01:03:00,VALID,918.409,VALID,0,VALID,98.3167,VALID,0,VALID,20.6068,VALID,26,VALID,0.00464527,
2002-12-06, 01:04:00,VALID,918.394,VALID,0,VALID,98.3523,VALID,-0.0169808,VALID,20.6202,VALID,26,VALID,0.215712,
2002-12-06, 01:05:00,VALID,918.382,VALID,0,VALID,98.3701,VALID,0.0169808,VALID,20.6229,VALID,26,VALID,0.582812,
2002-12-06, 01:06:00,VALID,918.359,VALID,0,VALID,98.3904,VALID,0,VALID,20.6461,VALID,25,VALID,0.76903,
2002-12-06, 01:07:00,VALID,918.34,VALID,0,VALID,98.3751,VALID,-0.0339617,VALID,20.6463,VALID,14,VALID,0.652444,
2002-12-06, 01:08:00,VALID,918.316,VALID,0,VALID,98.3904,VALID,0,VALID,20.6491,VALID,12,VALID,0.32053,
2002-12-06, 01:09:00,VALID,918.295,VALID,0,VALID,98.4184,VALID,0,VALID,20.6491,VALID,14,VALID,0.226563,
2002-12-06, 01:10:00,VALID,918.266,VALID,0,VALID,98.3484,VALID,-0.0169808,VALID,20.6496,VALID,14,VALID,0.375822,
2002-12-06, 01:11:00,VALID,918.22,VALID,0,VALID,98.3065,VALID,-0.0169808,VALID,20.6401,VALID,12,VALID,0.175781,
2002-12-06, 01:12:00,VALID,918.199,VALID,0,VALID,98.3256,VALID,0,VALID,20.6232,VALID,12,VALID,0.129123,
2002-12-06, 01:13:00,VALID,918.168,VALID,0,VALID,98.2849,VALID,0,VALID,20.6138,VALID,13,VALID,0.270904,
2002-12-06, 01:14:00,VALID,918.147,VALID,0,VALID,98.3001,VALID,-0.0679233,VALID,20.6076,VALID,21,VALID,1.23376,
2002-12-06, 01:15:00,VALID,918.118,VALID,0,VALID,98.2149,VALID,-0.0339617,VALID,20.5847,VALID,20,VALID,1.06123,
2002-12-06, 01:16:00,VALID,918.115,VALID,0,VALID,98.234,VALID,0,VALID,20.5653,VALID,23,VALID,1.29667,
2002-12-06, 01:17:00,VALID,918.114,VALID,0,VALID,98.3383,VALID,-0.0339617,VALID,20.5685,VALID,14,VALID,1.01605,
2002-12-06, 01:18:00,VALID,918.108,VALID,0,VALID,98.3764,VALID,-0.0339617,VALID,20.5712,VALID,17,VALID,0.73522,
2002-12-06, 01:19:00,VALID,918.104,VALID,0,VALID,98.3561,VALID,-0.0509425,VALID,20.5723,VALID,15,VALID,0.917857,
2002-12-06, 01:20:00,VALID,918.107,VALID,0,VALID,98.3256,VALID,-0.0169808,VALID,20.5526,VALID,18,VALID,1.23902,
2002-12-06, 01:21:00,VALID,918.099,VALID,0,VALID,98.3217,VALID,-0.0679233,VALID,20.5462,VALID,16,VALID,1.21474,
2002-12-06, 01:22:00,VALID,918.091,VALID,0,VALID,98.2887,VALID,-0.0169808,VALID,20.5268,VALID,15,VALID,1.02232,
2002-12-06, 01:23:00,VALID,918.08,VALID,0,VALID,98.2315,VALID,0,VALID,20.5007,VALID,328,VALID,0.802154,
2002-12-06, 01:24:00,VALID,918.078,VALID,0,VALID,98.1094,VALID,0,VALID,20.4495,VALID,284,VALID,0.792101,
2002-12-06, 01:25:00,VALID,918.08,VALID,0,VALID,98.0712,VALID,-0.0169808,VALID,20.4301,VALID,333,VALID,0.511719,
2002-12-06, 01:26:00,VALID,918.078,VALID,0,VALID,98.1895,VALID,-0.0169808,VALID,20.4425,VALID,21,VALID,0.886418,
2002-12-06, 01:27:00,VALID,918.057,VALID,0,VALID,98.276,VALID,0,VALID,20.4788,VALID,21,VALID,0.938902,
2002-12-06, 01:28:00,VALID,918.055,VALID,0,VALID,98.2925,VALID,-0.0339617,VALID,20.4711,VALID,19,VALID,0.255208,
2002-12-06, 01:29:00,VALID,918.066,VALID,0,VALID,98.3217,VALID,-0.0169808,VALID,20.4875,VALID,18,VALID,0.289063,
2002-12-06, 01:30:00,VALID,918.058,VALID,0,VALID,98.2747,VALID,0,VALID,20.4945,VALID,3,VALID,0.573602,
2002-12-06, 01:31:00,VALID,918.049,VALID,0,VALID,98.2048,VALID,-0.0169808,VALID,20.4679,VALID,30,VALID,0.681127,
2002-12-06, 01:32:00,VALID,918.036,VALID,0,VALID,98.2632,VALID,0,VALID,20.4646,VALID,27,VALID,0.76888,
2002-12-06, 01:33:00,VALID,918.025,VALID,0,VALID,98.3726,VALID,-0.0339617,VALID,20.4969,VALID,14,VALID,0.391047,
2002-12-06, 01:34:00,VALID,918.013,VALID,0,VALID,98.3942,VALID,-0.0169808,VALID,20.5012,VALID,1,VALID,0.766859,
2002-12-06, 01:35:00,VALID,918.005,VALID,0,VALID,98.4642,VALID,-0.0339617,VALID,20.5042,VALID,20,VALID,0.547086,
2002-12-06, 01:36:00,VALID,918.002,VALID,0,VALID,98.4934,VALID,-0.0339617,VALID,20.5174,VALID,19,VALID,0.439503,
2002-12-06, 01:37:00,VALID,917.992,VALID,0,VALID,98.5137,VALID,-0.0509425,VALID,20.5168,VALID,20,VALID,0.376689,
2002-12-06, 01:38:00,VALID,917.97,VALID,0,VALID,98.5519,VALID,-0.0679233,VALID,20.5367,VALID,22,VALID,0.411529,
2002-12-06, 01:39:00,VALID,917.973,VALID,0,VALID,98.5315,VALID,-0.0169808,VALID,20.5233,VALID,14,VALID,0.424107,
2002-12-06, 01:40:00,VALID,917.969,VALID,0,VALID,98.5799,VALID,-0.0169808,VALID,20.5263,VALID,342,VALID,0.213682,
2002-12-06, 01:41:00,VALID,917.96,VALID,0,VALID,98.529,VALID,-0.0339617,VALID,20.5071,VALID,351,VALID,0.104167,
2002-12-06, 01:42:00,VALID,917.957,VALID,0,VALID,98.571,VALID,-0.0339617,VALID,20.5136,VALID,9,VALID,0.446652,
2002-12-06, 01:43:00,VALID,917.942,VALID,0,VALID,98.6358,VALID,-0.0169808,VALID,20.5402,VALID,10,VALID,0.44299,
2002-12-06, 01:44:00,VALID,917.933,VALID,0,VALID,98.6485,VALID,0,VALID,20.5263,VALID,17,VALID,0.840929,
2002-12-06, 01:45:00,VALID,917.926,VALID,0,VALID,98.6943,VALID,-0.0509425,VALID,20.5529,VALID,21,VALID,0.700977,
2002-12-06, 01:46:00,VALID,917.924,VALID,0,VALID,98.6524,VALID,-0.0169808,VALID,20.5491,VALID,21,VALID,0.328325,
2002-12-06, 01:47:00,VALID,917.908,VALID,0,VALID,98.6524,VALID,0,VALID,20.5327,VALID,20,VALID,0.177684,
2002-12-06, 01:48:00,VALID,917.879,VALID,0,VALID,98.6638,VALID,-0.0169808,VALID,20.5325,VALID,1,VALID,0.300347,
2002-12-06, 01:49:00,VALID,917.863,VALID,0,VALID,98.4858,VALID,0,VALID,20.4907,VALID,359,VALID,0.805321,
2002-12-06, 01:50:00,VALID,917.83,VALID,0,VALID,98.3968,VALID,0,VALID,20.4395,VALID,304,VALID,0.626234,
2002-12-06, 01:51:00,VALID,917.811,VALID,0,VALID,98.4044,VALID,-0.0679233,VALID,20.4271,VALID,353,VALID,0.297081,
2002-12-06, 01:52:00,VALID,917.787,VALID,0,VALID,98.4146,VALID,-0.0849042,VALID,20.4177,VALID,344,VALID,0.230252,
2002-12-06, 01:53:00,VALID,917.77,VALID,0,VALID,98.4616,VALID,-0.0849042,VALID,20.4242,VALID,10,VALID,0.213049,
2002-12-06, 01:54:00,VALID,917.753,VALID,0.2,VALID,98.4959,VALID,-0.0509425,VALID,20.4299,VALID,10,VALID,0,
2002-12-06, 01:55:00,VALID,917.745,VALID,0,VALID,98.5074,VALID,0,VALID,20.4605,VALID,10,VALID,0.0707348,
2002-12-06, 01:56:00,VALID,917.731,VALID,0,VALID,98.4794,VALID,-0.0169808,VALID,20.4231,VALID,10,VALID,0,
2002-12-06, 01:57:00,VALID,917.713,VALID,0,VALID,98.4959,VALID,-0.0679233,VALID,20.4465,VALID,10,VALID,0.011402,
2002-12-06, 01:58:00,VALID,917.69,VALID,0,VALID,98.5544,VALID,-0.0339617,VALID,20.449,VALID,11,VALID,0.134502,
2002-12-06, 01:59:00,VALID,917.667,VALID,0,VALID,98.6028,VALID,-0.0509425,VALID,20.4786,VALID,11,VALID,0,
2002-12-06, 02:00:00,VALID,917.65,VALID,0,VALID,98.6358,VALID,-0.0679233,VALID,20.5082,VALID,11,VALID,0.216005,
2002-12-06, 02:01:00,VALID,917.629,VALID,0,VALID,98.6562,VALID,-0.0339617,VALID,20.534,VALID,18,VALID,0.517829,
2002-12-06, 02:02:00,VALID,917.596,VALID,0,VALID,98.6358,VALID,-0.0679233,VALID,20.5179,VALID,23,VALID,1.07902,
2002-12-06, 02:03:00,VALID,917.589,VALID,0,VALID,98.6167,VALID,-0.0339617,VALID,20.5243,VALID,17,VALID,0.734586,
2002-12-06, 02:04:00,VALID,917.608,VALID,0,VALID,98.6028,VALID,-0.0509425,VALID,20.4982,VALID,20,VALID,0.72092,
2002-12-06, 02:05:00,VALID,917.612,VALID,0,VALID,98.6409,VALID,-0.0169808,VALID,20.4918,VALID,16,VALID,0.375586,
2002-12-06, 02:06:00,VALID,917.623,VALID,0,VALID,98.6994,VALID,-0.0169808,VALID,20.5146,VALID,22,VALID,0.912059,
2002-12-06, 02:07:00,VALID,917.623,VALID,0,VALID,98.6918,VALID,-0.0849042,VALID,20.495,VALID,17,VALID,0.815304,
2002-12-06, 02:08:00,VALID,917.619,VALID,0,VALID,98.7604,VALID,-0.0679233,VALID,20.5079,VALID,24,VALID,0.546224,
2002-12-06, 02:09:00,VALID,917.607,VALID,0,VALID,98.7808,VALID,-0.0509425,VALID,20.5181,VALID,23,VALID,0.159206,
2002-12-06, 02:10:00,VALID,917.605,VALID,0,VALID,98.7287,VALID,-0.0509425,VALID,20.4912,VALID,335,VALID,0.366776,
2002-12-06, 02:11:00,VALID,917.598,VALID,0,VALID,98.7045,VALID,-0.0509425,VALID,20.4691,VALID,17,VALID,0.362048,
2002-12-06, 02:12:00,VALID,917.57,VALID,0,VALID,98.7668,VALID,-0.0339617,VALID,20.4686,VALID,15,VALID,0.222656,
2002-12-06, 02:13:00,VALID,917.577,VALID,0,VALID,98.7668,VALID,-0.0679233,VALID,20.4622,VALID,11,VALID,0.0730574,
2002-12-06, 02:14:00,VALID,917.566,VALID,0,VALID,98.6816,VALID,-0.0339617,VALID,20.4234,VALID,358,VALID,0.161184,
2002-12-06, 02:15:00,VALID,917.546,VALID,0,VALID,98.6994,VALID,-0.0679233,VALID,20.3913,VALID,357,VALID,0,
2002-12-06, 02:16:00,VALID,917.537,VALID,0,VALID,98.7541,VALID,-0.0339617,VALID,20.3916,VALID,357,VALID,0.0422676,
2002-12-06, 02:17:00,VALID,917.541,VALID,0,VALID,98.8037,VALID,-0.0169808,VALID,20.4209,VALID,357,VALID,0.14337,
2002-12-06, 02:18:00,VALID,917.546,VALID,0,VALID,98.8189,VALID,-0.0849042,VALID,20.4204,VALID,357,VALID,0.147382,
2002-12-06, 02:19:00,VALID,917.563,VALID,0,VALID,98.8609,VALID,-0.0339617,VALID,20.4269,VALID,12,VALID,0.523661,
2002-12-06, 02:20:00,VALID,917.555,VALID,0,VALID,98.866,VALID,-0.0509425,VALID,20.457,VALID,24,VALID,0.679688,
2002-12-06, 02:21:00,VALID,917.545,VALID,0,VALID,98.8889,VALID,0.0339617,VALID,20.445,VALID,16,VALID,0.41246,
2002-12-06, 02:22:00,VALID,917.533,VALID,0,VALID,98.8596,VALID,0.0509425,VALID,20.445,VALID,14,VALID,0.0573661,
2002-12-06, 02:23:00,VALID,917.53,VALID,0,VALID,98.8431,VALID,0.0339617,VALID,20.4321,VALID,14,VALID,0.116976,
2002-12-06, 02:24:00,VALID,917.515,VALID,0,VALID,98.8266,VALID,0.0679233,VALID,20.4129,VALID,14,VALID,0.0238715,
2002-12-06, 02:25:00,VALID,917.512,VALID,0,VALID,98.8316,VALID,0.0679233,VALID,20.3992,VALID,14,VALID,0,
2002-12-06, 02:26:00,VALID,917.51,VALID,0,VALID,98.8037,VALID,0.0679233,VALID,20.3799,VALID,14,VALID,0,
2002-12-06, 02:27:00,VALID,917.49,VALID,0,VALID,98.81,VALID,0.0849042,VALID,20.3839,VALID,14,VALID,0,
2002-12-06, 02:28:00,VALID,917.464,VALID,0,VALID,98.7846,VALID,0.0849042,VALID,20.3771,VALID,14,VALID,0.0488281,
2002-12-06, 02:29:00,VALID,917.437,VALID,0,VALID,98.7096,VALID,0.101885,VALID,20.3413,VALID,14,VALID,0.00633446,
2002-12-06, 02:30:00,VALID,917.433,VALID,0,VALID,98.7032,VALID,0.0849042,VALID,20.3322,VALID,14,VALID,0.00102796,
2002-12-06, 02:31:00,VALID,917.394,VALID,0,VALID,98.7477,VALID,0.0339617,VALID,20.3249,VALID,14,VALID,0.261924,
2002-12-06, 02:32:00,VALID,917.37,VALID,0,VALID,98.7452,VALID,0.0509425,VALID,20.3314,VALID,14,VALID,0.015191,
2002-12-06, 02:33:00,VALID,917.349,VALID,0,VALID,98.646,VALID,0.0509425,VALID,20.3093,VALID,14,VALID,0,
2002-12-06, 02:34:00,VALID,917.328,VALID,0,VALID,98.6574,VALID,0.0679233,VALID,20.3061,VALID,14,VALID,0,
2002-12-06, 02:35:00,VALID,917.325,VALID,0,VALID,98.6333,VALID,0.0509425,VALID,20.2832,VALID,14,VALID,0.0380068,
2002-12-06, 02:36:00,VALID,917.307,VALID,0,VALID,98.5494,VALID,-0.0169808,VALID,20.2621,VALID,14,VALID,0.403446,
2002-12-06, 02:37:00,VALID,917.291,VALID,0,VALID,98.5684,VALID,-0.0509425,VALID,20.2527,VALID,22,VALID,0.574113,
2002-12-06, 02:38:00,VALID,917.282,VALID,0,VALID,98.632,VALID,-0.0169808,VALID,20.2723,VALID,29,VALID,1.08108,
2002-12-06, 02:39:00,VALID,917.261,VALID,0,VALID,98.6638,VALID,-0.0339617,VALID,20.2882,VALID,18,VALID,0.67567,
2002-12-06, 02:40:00,VALID,917.248,VALID,0,VALID,98.6524,VALID,-0.0339617,VALID,20.2917,VALID,26,VALID,0.786529,
2002-12-06, 02:41:00,VALID,917.225,VALID,0,VALID,98.6638,VALID,-0.0509425,VALID,20.2882,VALID,29,VALID,0.977163,
2002-12-06, 02:42:00,VALID,917.22,VALID,0,VALID,98.6752,VALID,-0.0339617,VALID,20.3011,VALID,17,VALID,0.674554,
2002-12-06, 02:43:00,VALID,917.223,VALID,0,VALID,98.6091,VALID,-0.0849042,VALID,20.282,VALID,13,VALID,0.759291,
2002-12-06, 02:44:00,VALID,917.209,VALID,0,VALID,98.59,VALID,-0.0679233,VALID,20.2524,VALID,19,VALID,0.65191,
2002-12-06, 02:45:00,VALID,917.196,VALID,0,VALID,98.6028,VALID,-0.0509425,VALID,20.2591,VALID,15,VALID,0.319336,
2002-12-06, 02:46:00,VALID,917.19,VALID,0,VALID,98.5799,VALID,-0.0679233,VALID,20.24,VALID,15,VALID,0.142829,
2002-12-06, 02:47:00,VALID,917.165,VALID,0,VALID,98.5735,VALID,-0.0169808,VALID,20.2397,VALID,15,VALID,0.0250401,
2002-12-06, 02:48:00,VALID,917.164,VALID,0,VALID,98.5633,VALID,-0.0339617,VALID,20.2335,VALID,15,VALID,0.0570747,
2002-12-06, 02:49:00,VALID,917.141,VALID,0,VALID,98.5315,VALID,-0.0509425,VALID,20.2236,VALID,15,VALID,0.00105574,
2002-12-06, 02:50:00,VALID,917.14,VALID,0,VALID,98.5392,VALID,-0.0509425,VALID,20.2405,VALID,15,VALID,0.0139803,
2002-12-06, 02:51:00,VALID,917.131,VALID,0,VALID,98.4692,VALID,0.0339617,VALID,20.2198,VALID,15,VALID,0.000822368,
2002-12-06, 02:52:00,VALID,917.142,VALID,0,VALID,98.4375,VALID,0.0679233,VALID,20.1957,VALID,288,VALID,0.34809,
2002-12-06, 02:53:00,VALID,917.116,VALID,0,VALID,98.4184,VALID,0.0339617,VALID,20.1898,VALID,274,VALID,0.585726,
2002-12-06, 02:54:00,VALID,917.118,VALID,0,VALID,98.4794,VALID,0.0679233,VALID,20.196,VALID,346,VALID,0.248561,
2002-12-06, 02:55:00,VALID,917.115,VALID,0,VALID,98.5061,VALID,0.0339617,VALID,20.2124,VALID,351,VALID,0.36402,
2002-12-06, 02:56:00,VALID,917.092,VALID,0,VALID,98.5405,VALID,0.0339617,VALID,20.2258,VALID,5,VALID,0.0504808,
2002-12-06, 02:57:00,VALID,917.074,VALID,0,VALID,98.5735,VALID,0.0169808,VALID,20.2315,VALID,5,VALID,0.0538429,
2002-12-06, 02:58:00,VALID,917.054,VALID,0,VALID,98.5506,VALID,0.0509425,VALID,20.2323,VALID,5,VALID,0.00105574,
2002-12-06, 02:59:00,VALID,917.044,VALID,0,VALID,98.5201,VALID,0.0339617,VALID,20.2288,VALID,5,VALID,0.00736607,
2002-12-06, 03:00:00,VALID,917.039,VALID,0,VALID,98.5455,VALID,0.0169808,VALID,20.2188,VALID,3,VALID,0.24641,
2002-12-06, 03:01:00,VALID,917.036,VALID,0,VALID,98.5672,VALID,0.0339617,VALID,20.229,VALID,3,VALID,0.0174279,
2002-12-06, 03:02:00,VALID,917.029,VALID,0,VALID,98.5786,VALID,0.0339617,VALID,20.2288,VALID,3,VALID,0,
2002-12-06, 03:03:00,VALID,917.035,VALID,0,VALID,98.5811,VALID,0.0169808,VALID,20.2288,VALID,3,VALID,0,
2002-12-06, 03:04:00,VALID,917.05,VALID,0,VALID,98.5824,VALID,0.0169808,VALID,20.2221,VALID,3,VALID,0,
2002-12-06, 03:05:00,VALID,917.039,VALID,0,VALID,98.5354,VALID,0.0339617,VALID,20.2089,VALID,9,VALID,0.281641,
2002-12-06, 03:06:00,VALID,917.032,VALID,0,VALID,98.5532,VALID,-0.0169808,VALID,20.2005,VALID,17,VALID,0.427684,
2002-12-06, 03:07:00,VALID,917.021,VALID,0,VALID,98.59,VALID,-0.0849042,VALID,20.1977,VALID,29,VALID,0.677684,
2002-12-06, 03:08:00,VALID,916.997,VALID,0,VALID,98.5811,VALID,-0.101885,VALID,20.1953,VALID,23,VALID,0.655382,
2002-12-06, 03:09:00,VALID,917,VALID,0,VALID,98.693,VALID,-0.0679233,VALID,20.2077,VALID,14,VALID,0.692145,
2002-12-06, 03:10:00,VALID,916.973,VALID,0,VALID,98.6816,VALID,-0.0509425,VALID,20.2139,VALID,17,VALID,0.538035,
2002-12-06, 03:11:00,VALID,916.969,VALID,0,VALID,98.6841,VALID,-0.0509425,VALID,20.2042,VALID,14,VALID,0.575247,
2002-12-06, 03:12:00,VALID,916.952,VALID,0,VALID,98.7401,VALID,-0.0849042,VALID,20.2107,VALID,18,VALID,0.594618,
2002-12-06, 03:13:00,VALID,916.953,VALID,0,VALID,98.7554,VALID,-0.0339617,VALID,20.2104,VALID,14,VALID,0.971706,
2002-12-06, 03:14:00,VALID,916.959,VALID,0,VALID,98.7668,VALID,-0.0849042,VALID,20.2238,VALID,19,VALID,0.883224,
2002-12-06, 03:15:00,VALID,916.955,VALID,0,VALID,98.6269,VALID,-0.0169808,VALID,20.1746,VALID,2,VALID,0.878801,
2002-12-06, 03:16:00,VALID,916.972,VALID,0,VALID,98.6333,VALID,-0.0339617,VALID,20.1625,VALID,30,VALID,0.634415,
2002-12-06, 03:17:00,VALID,916.981,VALID,0,VALID,98.6727,VALID,-0.0679233,VALID,20.1488,VALID,14,VALID,0.809966,
2002-12-06, 03:18:00,VALID,917.012,VALID,0,VALID,98.6218,VALID,-0.0169808,VALID,20.1401,VALID,360,VALID,0.605152,
2002-12-06, 03:19:00,VALID,917.026,VALID,0,VALID,98.6002,VALID,-0.0169808,VALID,20.1237,VALID,8,VALID,0.791295,
2002-12-06, 03:20:00,VALID,917.03,VALID,0,VALID,98.5939,VALID,-0.0169808,VALID,20.104,VALID,12,VALID,0.862965,
2002-12-06, 03:21:00,VALID,917.052,VALID,0,VALID,98.6066,VALID,-0.0339617,VALID,20.1043,VALID,25,VALID,0.753005,
2002-12-06, 03:22:00,VALID,917.065,VALID,0,VALID,98.6269,VALID,-0.0849042,VALID,20.0946,VALID,37,VALID,0.716518,
2002-12-06, 03:23:00,VALID,917.074,VALID,0,VALID,98.6638,VALID,-0.0849042,VALID,20.1013,VALID,29,VALID,0.866132,
2002-12-06, 03:24:00,VALID,917.064,VALID,0,VALID,98.6663,VALID,-0.101885,VALID,20.1048,VALID,22,VALID,0.755208,
2002-12-06, 03:25:00,VALID,917.081,VALID,0,VALID,98.6689,VALID,-0.0679233,VALID,20.0951,VALID,39,VALID,0.577344,
2002-12-06, 03:26:00,VALID,917.077,VALID,0,VALID,98.7007,VALID,-0.101885,VALID,20.0949,VALID,44,VALID,0.340545,
2002-12-06, 03:27:00,VALID,917.068,VALID,0,VALID,98.7032,VALID,-0.0849042,VALID,20.1073,VALID,47,VALID,0.352764,
2002-12-06, 03:28:00,VALID,917.069,VALID,0,VALID,98.7134,VALID,-0.0849042,VALID,20.104,VALID,48,VALID,0.36697,
2002-12-06, 03:29:00,VALID,917.068,VALID,0,VALID,98.6829,VALID,-0.101885,VALID,20.115,VALID,49,VALID,0.371622,
2002-12-06, 03:30:00,VALID,917.078,VALID,0,VALID,98.6791,VALID,-0.101885,VALID,20.1078,VALID,49,VALID,0.332854,
2002-12-06, 03:31:00,VALID,917.072,VALID,0,VALID,98.6447,VALID,-0.101885,VALID,20.1046,VALID,49,VALID,0.343956,